Location: Potomac
(46.8816°N, 113.5795°W)
Time: 04:31:58
(UTC+00:00)

UKube-1 - Pass Details

Date: 29 June 2022
Orbit: 608 x 615 km, 98.4° (Epoch: 13 August)

Event Time Altitude Azimuth Distance (km) Brightness Sun altitude
Rises 07:03:37 0° 358° (N) 2,898 ? -19.5°
Reaches altitude 10° 07:06:34 10° 336° (NNW) 1,986 ? -19.5°
Maximum altitude 07:09:05 15° 300° (WNW) 1,650 ? -19.6°
Drops below altitude 10° 07:11:35 10° 264° (W) 1,975 ? -19.6°
Enters shadow 07:13:28 - 248° (WSW) 2,515 ? -19.7°
